Content
SEND FEEDBACK

Daily
Averages
Monthly
Summary
Mexico

CHETUMAL, QUINTANA ROO


Home > North America > Mexico > Quintana Roo
Elevation: 30 feet     Latitude: 18 31N     Longitude: 088 18W

WEATHER
 
SELECT A DAY
Number of Records: 124,892;   Date Range: 1/1/95 - 10/24/14
 
SHARE

PRINT THIS DATA

[ ← Previous Day ]
WEATHER ALMANAC - JUNE 17, 2014
[ Next Day → ]
[ °C ]   °F
Weather ElementAverageHighLow
Temperature86.2 °F94 °F (3:50 pm)80.6 °F (5:55 am)
Dewpoint77.2 °F80.6 °F (3:41 pm)73.4 °F (5:55 am)
Humidity73.2 %84 % (8:43 pm)52 % (3:50 pm)
Barometer29.96 in30.00 in (9:50 am)29.92 in (5:01 pm)
Wind Speed9.5 mph17.3 mph (11:41 am)
Weather ElementAverage
Visibility6.7 mi
Wind DirectionENE (82.7 °)

Weather ElementTotal
Precipitation---
Cooling Degree Days22.3 (Base 65)
Growing Degree Days37.3 (Base 50)
Averaged from 22 records on June 17, 2014
WEATHER CONDITIONS BREAKOUT
WIND DIRECTION BREAKOUT
WEATHER BY HOUR - JUNE 17, 2014
[ °C ]   °F
Local TimeTemperatureDewpointHumidityBarometerVisibilityWind DirectionWind SpeedGust SpeedPrecipitationEventsConditions
5:55 AM80.6 °F73.4 °F79 %29.94 in7.0 miEast (100°)9.2 mphPartly Cloudy
6:40 AM82.4 °F75.2 °F79 %29.97 in7.0 miEast (90°)11.5 mphPartly Cloudy
6:50 AM81.0 °F77.0 °F83 %29.98 in6.0 miENE (60°)2.2 mphScattered Clouds
7:59 AM82.4 °F75.2 °F79 %29.96 in7.0 miEast (90°)11.5 mphScattered Clouds
8:41 AM84.2 °F75.2 °F74 %29.97 in7.0 miEast (90°)11.5 mphScattered Clouds
9:42 AM86.0 °F77.0 °F74 %29.99 in7.0 miEast (90°)6.9 mphScattered Clouds
9:50 AM87.0 °F77.0 °F66 %30.00 in6.0 miENE (70°)6.7 mphPartly Cloudy
10:40 AM86.0 °F77.0 °F74 %29.98 in7.0 miEast (90°)11.5 mphScattered Clouds
11:41 AM87.8 °F77.0 °F70 %29.97 in7.0 miEast (100°)17.3 mphScattered Clouds
12:42 PM87.8 °F77.0 °F70 %29.97 in7.0 miEast (90°)11.5 mphScattered Clouds
12:50 PM92.0 °F78.0 °F56 %29.97 in6.0 miEast (90°)6.7 mphPartly Cloudy
1:45 PM87.8 °F78.8 °F75 %29.95 in7.0 miEast (90°)5.8 mphScattered Clouds
2:42 PM87.8 °F78.8 °F75 %29.94 in7.0 miEast (90°)9.2 mphScattered Clouds
3:41 PM89.6 °F80.6 °F75 %29.94 in7.0 miESE (120°)9.2 mphScattered Clouds
3:50 PM94.0 °F78.0 °F52 %29.95 in6.0 miENE (70°)8.9 mphPartly Cloudy
5:01 PM89.6 °F78.8 °F70 %29.92 in7.0 miEast (90°)11.5 mphScattered Clouds
5:43 PM87.8 °F80.6 °F79 %29.92 in7.0 miENE (60°)11.5 mphMostly Cloudy
6:41 PM86.0 °F77.0 °F74 %29.95 in7.0 miENE (60°)11.5 mphMostly Cloudy
6:50 PM87.0 °F77.0 °F66 %29.96 in6.0 miENE (70°)6.7 mphPartly Cloudy
7:46 PM84.2 °F77.0 °F79 %29.95 in7.0 miENE (60°)11.5 mphMostly Cloudy
8:43 PM82.4 °F77.0 °F84 %29.95 in7.0 miENE (60°)11.5 mphMostly Cloudy
9:50 PM82.0 °F76.0 °F77 %29.99 in5.0 miEast (90°)4.5 mphScattered Clouds
Hourly data recorded from MMCM, located miles away from Chetumal, Quintana Roo







STORIES FROM OUR PARTNERS